COMSATBW-2

Last updated on Sat Mar 14 2026 00:02:53 GMT+0000 (Coordinated Universal Time)

1 36582U 10021B 26072.36433860 .00000088 00000+0 00000+0 0 9992 2 36582 0.0407 237.1237 0002504 128.0538 310.2118 1.00268503 57991
UTC large
Height (km)
Speed (km/s)
/
Latitude / Longitude
Inclination (degrees)
Orbital Period (minutes)
Azimuth
Elevation
Range (km)
Doppler Factor

Next 0 passes for location: London (51.5072 / 0.1276)

Sorry there are no passes over London.